Location: Newark
(7.1028°S, 35.3258°W)
Time: 08:45:57
(UTC+00:00)

Vanguard 3 - Pass Details

Date: 25 February 2020
Orbit: 508 x 3263 km, 33.4° (Epoch: 08 April)

Event Time Altitude Azimuth Distance (km) Brightness Sun altitude
Rises 03:34:43 0° 227° (SW) 5,830 - -67.8°
Reaches altitude 10° 03:40:26 10° 213° (SSW) 4,247 - -66.8°
Maximum altitude 03:47:56 21° 168° (SSE) 2,628 - -65.4°
Drops below altitude 10° 03:53:05 10° 120° (ESE) 2,793 - -64.5°
Sets 03:55:53 0° 103° (ESE) 3,418 - -63.9°
